Location: Unspecified
(40.7945°N, 111.1337°W)
Time: 14:03:52
(UTC-06:00)

Cosmos 1674 - Visible Passes

Search period start: 25 May 2017 00:00
Search period end: 04 June 2017 00:00
Orbit: 499 x 522 km, 82.5° (Epoch: 24 May)

Date Brightness Start Highest point End Pass type
(mag) Time Alt. Az. Time Alt. Az. Time Alt. Az.
25 May 5.0 01:39:54 19° ENE 01:39:54 19° ENE 01:41:42 10° NE visible
25 May 4.5 03:14:49 21° WNW 03:14:49 21° WNW 03:17:14 10° NNW visible
26 May 5.2 01:23:29 15° ENE 01:23:29 15° ENE 01:24:50 10° NE visible
26 May 4.3 02:58:23 25° NW 02:58:23 25° NW 03:00:56 10° NNW visible
27 May 5.4 01:07:03 12° ENE 01:07:03 12° ENE 01:07:50 10° NE visible
27 May 4.2 02:41:57 30° NW 02:41:57 30° NW 02:44:33 10° N visible
28 May 4.0 02:25:30 35° NW 02:25:30 35° NW 02:28:07 10° N visible
29 May 4.0 02:09:02 38° NNW 02:09:02 38° NNW 02:11:39 10° N visible
30 May 4.0 01:52:34 40° N 01:52:34 40° N 01:55:08 10° N visible
31 May 4.0 01:36:05 39° NNE 01:36:05 39° NNE 01:38:35 10° N visible
01 Jun 4.1 01:19:35 36° NNE 01:19:35 36° NNE 01:22:00 10° NNE visible
02 Jun 4.3 01:03:04 31° NE 01:03:04 31° NE 01:05:22 10° NNE visible
02 Jun 5.3 02:37:58 11° WNW 02:37:58 11° WNW 02:38:49 10° NW visible
03 Jun 4.4 00:46:32 27° NE 00:46:32 27° NE 00:48:41 10° NNE visible
03 Jun 5.2 02:21:26 14° WNW 02:21:26 14° WNW 02:23:02 10° NW visible
